Location: Bull Run
(41.9140°N, 74.4454°W)
Time: 05:46:03
(UTC+00:00)

Daily predictions for brighter satellites

Satellite Brightness Start Highest point End
(mag) Time Altitude Azimuth Time Altitude Azimuth Time Altitude Azimuth
STARLINK-1171 3.7 00:49:41 10° NW 00:53:50 84° SW 00:57:59 10° SE
Okean 1 3.7 00:50:35 10° SSE 00:54:27 45° E 00:58:20 10° NNE
Meteor 1-4 Rocket 3.9 00:54:34 10° SE 00:57:09 20° E 00:59:46 10° NE
STARLINK-1218 3.6 00:53:19 10° SW 00:57:27 76° SE 01:01:35 10° NE
STARLINK-1155 3.7 00:54:39 10° NW 00:58:48 77° SW 01:02:56 10° SE
SPOT 3 Rocket 3.6 00:53:44 10° SSE 00:58:49 66° ENE 01:03:57 10° N
STARLINK-1212 4.5 00:56:05 10° WSW 00:59:02 39° NNW 01:01:59 10° NE
USA 186 3.1 00:57:47 10° SSW 00:59:56 29° W 01:02:15 10° NNW
USA 229 DEB 3.8 00:55:39 10° SW 01:02:08 79° NW 01:09:01 10° NNE
ISS -1.1 00:59:57 10° NW 01:02:13 17° N 01:04:29 10° NE
USA 229 3.8 00:55:46 10° SW 01:02:15 80° NW 01:09:07 10° NE
STARLINK-1254 3.6 00:58:17 10° SW 01:02:26 83° SE 01:06:35 10° NE
STARLINK-1166 3.8 00:59:38 10° WNW 01:03:46 70° SW 01:07:52 10° SE
Cosmos 614 Rocket 4.0 00:59:31 10° NNW 01:04:35 66° ENE 01:09:38 10° SSE
Cosmos 1624 Rocket 4.3 00:59:31 10° S 01:04:36 48° ESE 01:09:44 10° NNE
Cosmos 2278 Rocket 2.9 01:01:13 10° SSE 01:06:10 32° ESE 01:11:08 10° NE
Resurs 01 Rocket 2.1 01:01:57 10° SE 01:06:12 46° ENE 01:10:28 10° N
Cosmos 44 Rocket 3.6 01:01:24 10° NW 01:06:15 66° WSW 01:11:11 10° SSE
Cosmos 1140 Rocket 4.2 01:01:40 10° N 01:06:34 40° ENE 01:11:28 10° SE
STARLINK-1087 1.9 01:05:20 10° WNW 01:07:16 61° SW 01:08:54 13° SE
STARLINK-1231 3.6 01:03:16 10° SW 01:07:24 90° NNE 01:11:34 10° NE
Cosmos 1782 Rocket 4.1 01:04:17 10° N 01:08:34 43° ENE 01:12:50 10° SSE
STARLINK-1165 3.9 01:04:37 10° WNW 01:08:43 64° SW 01:12:43 10° SE
NOSS 3-1 (C) 3.9 01:03:43 10° SW 01:09:05 64° NW 01:15:20 10° NNE
H-2A R/B 3.5 01:05:34 10° SSW 01:10:08 35° W 01:14:50 10° NNW
Cosmos 1844 Rocket 3.8 01:05:17 10° SW 01:10:46 50° WNW 01:16:17 10° NNE
NOSS 3-1 (A) 3.2 01:05:59 10° SSW 01:11:21 85° ESE 01:17:36 10° NE
STARLINK-1232 3.7 01:08:15 10° SW 01:12:23 83° NW 01:16:33 10° NE
Cosmos 1703 Rocket 3.5 01:08:43 10° S 01:13:02 75° E 01:17:22 10° NNE
STARLINK-1169 4.0 01:09:37 10° WNW 01:13:41 58° SW 01:17:30 11° SE
CREW DRAGON DEMO-1 DEB 2.8 01:12:28 10° NW 01:15:35 88° NNE 01:18:11 14° SE
STARLINK-1208 3.8 01:13:14 10° WSW 01:17:22 76° NW 01:21:31 10° NE
STARLINK-1178 4.1 01:14:37 10° WNW 01:18:39 52° SW 01:22:18 12° SSE
Meteor 1-19 Rocket 4.3 01:13:14 10° S 01:18:42 61° E 01:24:22 10° NNE
Cosmos 1371 Rocket 4.0 01:13:57 10° SSW 01:19:12 75° ESE 01:24:25 10° NNE
Cosmos 2034 Rocket 4.1 01:13:37 10° N 01:19:48 79° W 01:25:57 10° S
STARLINK-1081 4.5 01:16:56 10° NW 01:20:55 43° NNE 01:24:47 11° ESE
NOSS 2-3 (C) 3.6 01:17:55 10° SW 01:22:08 88° WNW 01:27:02 10° NE
SJ-6B 4.3 01:18:49 10° SSW 01:22:15 33° W 01:25:40 10° NNW
STARLINK-1271 4.0 01:18:13 10° WSW 01:22:20 70° NW 01:26:29 10° NE
Okean 2 Rocket 4.4 01:19:44 10° NNE 01:23:26 25° ENE 01:26:18 14° ESE
STARLINK-1120 4.2 01:19:37 10° WNW 01:23:37 47° SW 01:27:05 13° SSE
Cosmos 1544 3.4 01:20:36 10° N 01:24:08 47° E 01:27:02 14° SSE
STARLINK-1230 4.5 01:21:18 10° S 01:24:51 28° SE 01:28:24 10° ENE
Terra 4.0 01:23:57 10° E 01:25:46 12° ENE 01:27:35 10° NE
STARLINK-1070 4.4 01:21:54 10° NW 01:25:54 46° NNE 01:29:33 12° ESE
Cosmos 389 Rocket 3.3 01:23:20 10° SSW 01:26:42 51° WNW 01:30:07 10° N
Cosmos 1908 Rocket 4.0 01:22:49 10° NNW 01:27:14 64° W 01:31:38 10° S
STARLINK-1154 4.1 01:23:13 10° WSW 01:27:19 65° NW 01:31:27 10° NE
STARLINK-1131 4.4 01:24:38 10° WNW 01:28:34 43° SW 01:31:51 14° SSE
STARLINK-1243 4.3 01:26:08 10° SSW 01:29:47 31° SE 01:33:27 10° ENE
Hubble Space Telescope 2.9 01:28:36 10° SSW 01:30:13 12° S 01:31:25 11° SSE
STARLINK-1069 4.2 01:26:52 10° NW 01:30:54 49° NNE 01:34:20 14° ESE
Meteor 1-18 Rocket 4.3 01:26:14 10° S 01:31:48 87° W 01:37:29 10° N
STARLINK-1197 4.3 01:28:13 10° WSW 01:32:18 60° NW 01:36:25 10° NE
BREEZE M DEB (TANK) 3.6 01:24:08 10° SW 01:33:27 55° SSE 01:36:33 10° ENE
Lacrosse 5 3.4 01:29:23 10° NNW 01:33:46 29° NNE 01:38:09 10° E
STARLINK-1236 4.2 01:31:01 10° SSW 01:34:45 34° SE 01:38:31 10° ENE
Spot 2 Rocket 3.9 01:31:06 15° SE 01:35:06 46° ENE 01:39:54 10° N
STARLINK-1085 4.1 01:31:50 10° NW 01:35:54 53° NNE 01:39:08 15° ESE
Cosmos 1356 3.5 01:32:57 10° NNW 01:36:25 79° W 01:39:27 13° S
Iridium 51 4.2 01:32:21 10° S 01:36:28 73° E 01:40:14 10° N
STARLINK-1198 4.4 01:33:15 10° WSW 01:37:19 55° NNW 01:41:24 10° NE
Cosmos 371 Rocket 4.1 01:34:23 13° SSE 01:37:58 31° E 01:42:13 10° NE
STARLINK-1086 4.0 01:36:48 10° NW 01:40:54 57° NNE 01:43:54 17° ESE
Resurs 1-3 4.5 01:38:24 10° S 01:42:38 48° W 01:46:54 10° NNW
Cosmos 676 Rocket 4.2 01:38:14 10° NNW 01:43:25 57° ENE 01:47:09 19° SE
Cosmos 1023 Rocket 4.5 01:38:28 10° NNW 01:43:42 88° ENE 01:47:56 16° SSE
MetOp-B 4.2 01:39:50 15° SSE 01:44:22 71° ENE 01:49:42 10° N
STARLINK-1269 4.0 01:40:45 10° SSW 01:44:38 41° SE 01:48:33 10° ENE
STARLINK-1095 3.9 01:41:47 10° NW 01:45:54 62° NE 01:48:42 19° ESE
COSMOS 2406 3.2 01:40:07 10° NNW 01:45:55 78° ENE 01:50:17 18° SSE
Meteor 2-4 Rocket 3.6 01:42:06 10° S 01:47:26 66° E 01:52:44 10° NNE
Cosmos 2056 Rocket 3.7 01:42:31 10° SSW 01:47:36 72° WNW 01:52:43 10° NNE
Cosmos 1743 4.2 01:44:09 10° NNW 01:47:39 35° W 01:51:08 10° SSW
STARLINK-1200 3.8 01:45:40 10° SSW 01:49:37 45° SE 01:53:35 10° ENE
IGS 5A 3.8 01:47:13 21° SE 01:49:43 48° ENE 01:53:44 10° N
STARLINK-1077 3.8 01:46:44 10° NW 01:50:52 68° NE 01:53:29 22° ESE
STARLINK-1192 3.7 01:50:35 10° SSW 01:54:35 50° SE 01:58:36 10° ENE
Okean 3 3.4 01:51:40 14° S 01:55:21 71° E 01:59:40 10° NNE
Meteor 1-13 Rocket 4.4 01:51:21 16° SSE 01:55:41 51° E 02:01:10 10° NNE
STARLINK-1075 3.7 01:51:43 10° NW 01:55:51 74° NE 01:58:15 24° ESE
GPS 2-04 Rocket1 4.1 01:53:58 10° SSW 01:55:48 18° S 01:55:48 18° S
STARLINK-1244 3.6 01:55:30 10° SW 01:59:32 55° SE 02:03:36 10° ENE
Cosmos 1634 Rocket 4.0 01:53:26 10° N 01:59:48 87° W 02:05:16 14° S
STARLINK-1093 3.6 01:56:41 10° NW 02:00:51 80° NE 02:03:03 27° ESE
Cosmos 1461 4.2 02:04:40 22° ESE 02:04:40 22° ESE 02:07:34 10° ENE
STARLINK-1138 3.5 02:00:25 10° SW 02:04:29 61° SE 02:08:34 10° ENE
H-2A R/B 4.3 02:03:38 10° S 02:03:58 10° S 02:03:58 10° S
STARLINK-1074 3.6 02:01:40 10° NW 02:05:49 87° NE 02:07:49 30° SE
GENESIS II 4.2 02:02:02 10° NNW 02:06:04 79° ENE 02:07:49 32° SE
STARLINK-1143 3.5 02:05:21 10° SW 02:09:27 67° SE 02:13:34 10° ENE
SPOT 5 3.6 02:07:41 24° SE 02:10:19 44° ENE 02:15:21 10° N
ERBS 3.0 02:09:07 10° WSW 02:12:21 54° NW 02:15:37 10° NE
STARLINK-1203 3.5 02:09:34 10° SW 02:13:45 74° SE 02:17:57 10° NE
STARLINK-1241 3.5 02:10:19 10° SW 02:14:25 74° SE 02:18:34 10° NE
Cosmos 1300 Rocket 3.5 02:10:56 10° N 02:15:25 79° E 02:17:36 30° SSE
STARLINK-1088 3.5 02:11:37 10° NW 02:15:46 79° SW 02:17:23 36° SE
Landsat 7 3.8 02:15:16 25° S 02:18:05 82° WSW 02:22:52 10° NNW
Cosmos 1452 Rocket 3.4 02:13:28 12° SSW 02:18:20 76° ESE 02:23:38 10° NNE
Cosmos 2082 Rocket 2.5 02:13:03 10° NNW 02:18:42 56° ENE 02:21:36 28° SE
STARLINK-1239 3.5 02:15:16 10° SW 02:19:23 81° SE 02:23:33 10° NE
STARLINK-1115 3.6 02:16:36 10° NW 02:20:44 73° SW 02:22:10 39° SE
Cosmos 304 Rocket 4.3 02:20:05 32° SE 02:21:17 37° ESE 02:25:41 10° NE
Cosmos 1833 Rocket 2.7 02:16:55 10° NNW 02:22:33 85° WSW 02:25:34 29° SSE
Cosmos 1420 Rocket 4.3 02:17:41 10° SSW 02:22:52 68° WNW 02:28:04 10° NNE
STARLINK-1240 3.5 02:20:14 10° SW 02:24:23 88° SE 02:28:32 10° NE
STARLINK-1076 3.7 02:21:35 10° WNW 02:25:42 66° SW 02:26:56 42° SSE
CZ-4B DEB 4.3 02:28:01 51° S 02:28:47 81° WSW 02:32:08 10° NNW
Abrixas rocket 4.4 02:26:53 10° NW 02:29:17 22° N 02:31:37 10° NE
STARLINK-1216 3.6 02:25:12 10° SW 02:29:20 86° NW 02:33:30 10° NE
Cosmos 1674 Rocket 3.5 02:28:03 37° SSE 02:29:40 66° E 02:34:01 10° NNE
STARLINK-1092 3.8 02:26:33 10° WNW 02:30:38 60° SW 02:31:42 44° SSE
Cosmos 2369 Rocket 4.1 02:31:29 13° E 02:31:29 13° E 02:33:36 10° ENE
Cosmos 332 Rocket 3.7 02:28:28 23° S 02:31:31 76° ESE 02:36:25 10° NNE
Cosmos 1943 Rocket 3.6 02:33:19 20° E 02:33:19 20° E 02:37:07 10° NE
STARLINK-1237 3.7 02:30:11 10° SW 02:34:19 79° NW 02:38:29 10° NE
USA 245 4.1 02:33:13 26° SSW 02:34:35 36° WSW 02:37:27 10° NNW
STARLINK-1080 3.9 02:31:37 10° WNW 02:35:40 54° SW 02:36:32 44° S
Cosmos 1378 Rocket 3.6 02:34:29 42° SSE 02:35:41 58° E 02:40:01 10° NNE
Cosmos 1066 Rocket 4.1 02:36:48 34° SSE 02:39:05 62° E 02:44:23 10° NNE
STARLINK-1202 3.8 02:35:11 10° WSW 02:39:19 73° NW 02:43:28 10° NE
ISS -2.7 02:36:29 10° NW 02:39:41 39° NNE 02:40:32 32° ENE
Cosmos 1437 Rocket 2.6 02:39:15 42° SSW 02:40:25 81° W 02:44:14 10° N
STARLINK-1090 4.0 02:36:35 10° WNW 02:40:35 49° SW 02:41:17 44° S
STARLINK-1125 4.5 02:38:52 10° NW 02:42:51 45° NNE 02:44:29 29° E
Resurs 01 Rocket 4.1 02:40:01 10° SW 02:42:54 17° W 02:45:48 10° NW
EXPRESS MD2 3.4 02:40:19 10° SW 02:43:31 84° SE 02:49:48 10° ENE
ATLAS 3B CENTAUR R/B 4.0 02:36:36 10° SW 02:43:50 22° S 02:43:50 22° S
SPOT 1/Viking Rocket 4.0 02:42:36 27° SSW 02:45:18 56° W 02:50:23 10° NNW
STARLINK-1089 4.1 02:41:35 10° WNW 02:45:32 44° SW 02:46:03 42° SSW
STARLINK-1109 4.3 02:43:50 10° NW 02:47:51 48° NNE 02:49:16 33° E
Cosmos 1975 Rocket 4.3 02:48:58 27° E 02:48:58 27° E 02:52:39 10° NNE
STARLINK-1246 4.1 02:45:11 10° WSW 02:49:17 61° NW 02:53:24 10° NE
Cosmos 2278 Rocket 3.6 02:44:53 10° SW 02:50:08 38° WNW 02:55:25 10° N
STARLINK-1107 4.2 02:46:36 10° WNW 02:50:30 40° SW 02:50:50 39° SSW
Meteor 1-15 Rocket 4.3 02:45:24 10° N 02:51:22 81° E 02:53:45 39° SSE
SL-4 R/B 1.8 02:48:41 10° NW 02:51:20 53° WNW 02:51:20 53° WNW
STARLINK-1091 4.2 02:48:47 10° NW 02:52:50 51° NNE 02:54:02 38° E
Cosmos 1741 Rocket 3.9 02:48:46 10° NNW 02:54:01 88° ENE 02:55:39 45° SSE
STARLINK-1224 4.2 02:50:12 10° WSW 02:54:16 57° NNW 02:58:22 10° NE
Cosmos 972 Rocket 4.4 02:51:11 31° S 02:54:17 76° ESE 03:00:57 10° NNE
STARLINK-1066 4.4 02:51:39 10° WNW 02:55:29 37° SW 02:55:39 36° SW
STARLINK-1072 4.1 02:53:45 10° NW 02:57:50 56° NNE 02:58:48 43° E
Crew Dragon 3.2 02:56:53 10° NW 02:57:36 17° NNW 02:57:36 17° NNW
STARLINK-1225 4.4 02:55:12 10° WSW 02:59:15 52° NNW 03:03:19 10° NE
SeaSat 1 2.7 02:55:50 10° NE 03:00:34 44° ESE 03:00:45 44° ESE
ERS-1 Rocket 3.5 03:00:13 33° SSW 03:02:10 52° W 03:07:06 10° NNW
Terra 1.8 03:01:35 50° S 03:02:49 82° WSW 03:07:36 10° NNW
STARLINK-1096 3.9 02:58:43 10° NW 03:02:50 60° NNE 03:03:36 50° E
Cosmos 2026 Rocket 4.5 03:01:46 37° SE 03:03:24 44° E 03:09:20 10° NNE
BREEZE-M DEB (TANK) 4.2 02:44:28 10° WSW 03:04:28 80° NNW 03:09:00 10° ENE
MTI 4.2 03:01:55 10° N 03:04:34 58° N 03:04:34 58° N
Cosmos 1766 3.7 03:01:56 10° N 03:05:44 48° ENE 03:05:44 48° ENE
NOSS 2-2 (E) 3.3 03:07:04 58° ENE 03:07:04 58° ENE 03:10:20 10° NE
Cosmos 1850 Rocket 4.1 03:01:20 10° NNW 03:06:40 69° WSW 03:08:14 45° S
STARLINK-1079 3.8 03:03:42 10° NW 03:07:50 66° NE 03:08:24 57° E
Cosmos 1110 Rocket 3.9 03:09:30 44° SSW 03:11:12 87° ESE 03:16:25 10° NNE
Cosmos 1733 4.0 03:08:10 10° N 03:11:27 40° ENE 03:11:27 40° ENE
STARLINK-1116 3.6 03:08:40 10° NW 03:12:49 71° NE 03:13:10 66° ENE
Okean 1 Rocket 3.2 03:09:00 10° NNW 03:13:27 69° W 03:14:11 56° SSW
Lacrosse 5 1.8 03:12:05 10° NW 03:17:07 67° SW 03:17:49 59° S
Nadezhda 4 Rocket 4.2 03:14:13 29° SSW 03:17:27 67° W 03:23:34 10° N
STARLINK-1094 3.5 03:18:38 10° NW 03:22:45 84° NNE 03:22:45 84° NNE
Cosmos 1455 Rocket 3.7 03:19:53 10° N 03:23:58 41° ENE 03:23:58 41° ENE
STARLINK-1117 3.6 03:23:36 10° NW 03:27:31 79° WNW 03:27:31 79° WNW
NOSS 2-2 (C) 3.5 03:30:27 58° NNE 03:30:27 58° NNE 03:33:41 10° NNE
ATLAS 2AS CENTAUR R/B 3.8 03:30:08 31° ESE 03:30:43 32° ESE 03:37:31 10° NE
Aureole 2 Rocket 3.9 03:32:21 29° WNW 03:32:21 29° WNW 03:34:58 10° N
STARLINK-1078 3.7 03:28:35 10° NW 03:32:19 70° WNW 03:32:19 70° WNW
Cosmos 1331 Rocket 4.2 03:31:02 41° SW 03:32:45 67° WNW 03:37:55 10° NNE
STARLINK-1108 3.9 03:33:34 10° NW 03:37:05 60° W 03:37:05 60° W
Cosmos 1302 Rocket 3.9 03:38:22 67° SSE 03:38:51 72° ESE 03:44:09 10° NNE
Cosmos 1378 4.1 03:38:55 40° W 03:38:56 40° WNW 03:42:28 10° N
NOSS 3-2 (A) 4.4 03:31:44 10° NNW 03:39:12 59° NE 03:43:28 30° ESE
SL-27 R/B 4.1 03:37:38 10° N 03:40:12 28° NE 03:40:12 28° NE
STARLINK-1071 4.1 03:38:33 10° WNW 03:41:52 52° W 03:41:52 52° W
Cosmos 1461 4.3 03:40:57 21° WSW 03:43:07 36° NW 03:47:09 10° NNE
EO 1 Del DPAF 3.7 03:40:51 10° NNE 03:43:55 57° NNE 03:43:55 57° NNE
STARLINK-1110 4.3 03:42:38 10° WNW 03:45:46 47° W 03:45:46 47° W
Cosmos 1470 3.8 03:43:59 10° N 03:46:57 37° NE 03:46:57 37° NE
USA 238 DEB 4.1 03:40:45 10° NNW 03:47:55 63° NE 03:51:04 36° ESE
USA 238 4.1 03:40:51 10° NNW 03:48:01 63° NE 03:51:13 35° ESE
Cosmos 1805 4.4 03:49:20 10° NNW 03:52:39 35° W 03:52:39 35° W
ALOS 2 3.5 03:53:11 37° ENE 03:53:11 37° ENE 03:57:11 10° N
Meteor 1-22 Rocket 4.4 03:47:56 10° NNW 03:53:51 66° W 03:54:59 53° SSW
Meteor 2-13 Rocket 4.4 03:57:47 53° SSW 03:59:19 79° W 04:05:31 10° N
Cosmos 1544 Rocket 3.7 03:55:49 10° N 03:59:43 68° NNE 03:59:43 68° NNE
Cosmos 2082 Rocket 3.9 03:58:09 10° NW 04:02:18 21° W 04:03:27 20° WSW
Cosmos 1842 4.2 04:04:44 44° WNW 04:04:44 44° WNW 04:08:06 10° N
STARLINK-1119 4.4 04:00:49 10° NW 04:04:50 47° NNE 04:04:56 47° NE
Thor Agena Rocket 3.9 04:00:38 10° N 04:05:51 60° WNW 04:07:01 48° WSW
SL-8 R/B 4.1 04:03:03 10° WNW 04:07:49 59° NNE 04:08:51 47° ENE
Cosmos 1992 Rocket 4.4 04:08:52 49° E 04:08:52 49° E 04:13:29 10° NNE
STARLINK-1114 4.3 04:05:47 10° NW 04:09:42 50° NNE 04:09:42 50° NNE
Cosmos 1726 4.0 04:06:53 10° NNE 04:09:11 25° NE 04:09:11 25° NE
ATLAS CENTAUR R/B 3.8 04:13:51 14° ENE 04:13:51 14° ENE 04:14:46 10° ENE
Aureole 3 Rocket 4.1 04:07:13 10° N 04:13:03 85° W 04:14:58 53° S
Cosmos 2369 Rocket 2.1 04:13:14 64° SW 04:14:08 82° WNW 04:19:50 10° NNE
STARLINK-1130 (DARKSAT) 4.3 04:10:46 10° NW 04:14:31 52° NNE 04:14:31 52° NNE
Meteor 2-8 Rocket 4.5 04:08:53 10° N 04:15:00 67° E 04:16:00 57° SE
ISS -0.7 04:13:27 10° WNW 04:13:28 10° WNW 04:13:28 10° WNW
Cosmos 1943 Rocket 2.6 04:14:48 41° WSW 04:16:24 56° WNW 04:21:55 10° NNE
STARLINK-1084 4.3 04:15:42 10° NW 04:19:17 53° N 04:19:17 53° N
FALCON 9 R/B 4.3 04:25:00 21° ESE 04:25:00 21° ESE 04:29:40 10° E
STARLINK-1098 4.3 04:20:41 10° NW 04:24:03 52° NNW 04:24:03 52° NNW
Cosmos 1242 Rocket 4.1 04:27:39 34° NW 04:27:39 34° NW 04:30:15 10° N
Cosmos 2292 Rocket 4.4 04:28:07 40° NE 04:28:07 40° NE 04:30:42 10° NNE
USA 215 3.2 04:25:16 47° SE 04:27:23 88° NE 04:33:58 10° NW
STARLINK-1123 4.4 04:25:39 10° NW 04:28:50 49° NNW 04:28:50 49° NNW
BREEZE-M DEB (TANK) 3.3 04:21:02 10° WNW 04:30:23 79° NNE 04:30:37 76° ENE
S3M 3.8 04:26:09 10° N 04:32:20 90° W 04:33:15 67° S
Cosmos 292 Rocket 4.1 04:34:42 57° WNW 04:34:53 57° WNW 04:39:42 10° NNE
Cosmos 1655 Rocket 3.9 04:35:13 63° SSW 04:36:15 81° W 04:42:32 10° N
SeaSat 1 4.2 04:33:45 10° N 04:37:51 27° NW 04:40:31 17° W
Cosmos 1271 Rocket 4.0 04:40:47 37° NW 04:40:47 37° NW 04:43:41 10° N
Helios 1A 3.5 04:42:08 57° NNE 04:42:08 57° NNE 04:45:39 10° N
NOSS 3-2 (C) 4.0 04:38:02 10° NW 04:45:44 89° NE 04:48:46 45° SE
Cosmos 1707 4.1 04:49:05 36° NW 04:49:05 36° NW 04:51:58 10° N
Cosmos 1553 Rocket 4.4 04:42:32 10° NNW 04:48:34 49° W 04:49:33 45° WSW
Meteor 2-5 Rocket 4.4 04:49:14 38° E 04:49:31 38° E 04:54:37 10° NNE
Helios 1B rocket 3.9 04:48:43 10° NNE 04:51:26 29° ENE 04:51:26 29° ENE
NOSS 3-4 (A) 3.2 04:52:00 70° SSW 04:52:45 88° SE 04:59:03 10° NE
NOSS 3-4 (C) 3.2 04:52:07 70° SSW 04:52:51 87° ESE 04:59:10 10° NE
Cosmos 1503 Rocket 3.9 04:49:50 10° NNW 04:55:09 85° WSW 04:55:11 85° WSW
ATLAS 3B R/B 3.5 04:49:15 10° NNW 04:55:49 48° NE 05:00:19 21° ESE
Cosmos 1656 Rocket 3.6 04:55:34 67° WSW 04:56:11 74° WNW 05:01:48 10° NNE
Cosmos 1340 Rocket 3.6 04:52:30 10° N 04:55:32 49° NNW 04:55:32 49° NNW
CENTAUR R/B 3.1 04:49:30 10° NW 04:57:44 90° WSW 05:01:10 43° SSE
Cosmos 968 Rocket 3.8 04:53:03 10° NNW 04:57:43 55° W 04:57:43 55° W
Cosmos 1953 3.4 04:54:10 10° NNW 04:57:00 41° NW 04:57:00 41° NW
Cosmos 1674 4.0 05:02:07 38° NNE 05:02:07 38° NNE 05:04:35 10° NNE
Cosmos 1025 Rocket 4.4 05:02:18 30° WNW 05:02:18 30° WNW 05:05:49 10° NNW
PSLV R/B 4.5 04:59:16 10° NNE 05:03:00 43° ENE 05:03:00 43° ENE
In-Cosmos 22 4.1 05:04:34 66° W 05:04:48 68° W 05:10:05 10° N
Meteor 2-10 4.3 05:01:27 10° NNW 05:06:05 51° W 05:06:05 51° W
Cosmos 1833 4.1 05:04:26 10° NNW 05:10:03 69° WSW 05:10:06 69° WSW
Cosmos 1354 Rocket 4.0 05:06:11 10° NNW 05:11:18 68° W 05:11:18 68° W
Cosmos 1726 Rocket 4.1 05:09:41 10° N 05:13:26 54° NE 05:13:26 54° NE
Cosmos 1867 3.5 05:09:43 10° NNW 05:15:12 78° ENE 05:15:45 70° ESE
Cosmos 2266 Rocket 4.3 05:17:31 46° WSW 05:18:36 51° WNW 05:24:30 10° N
ATLAS 2AS CENTAUR R/B 3.3 05:17:31 34° WSW 05:21:17 65° NW 05:29:13 10° NNE
SL-4 R/B 2.6 05:22:07 65° NW 05:22:20 66° NNW 05:27:07 10° NE
Cosmos 2297 Rocket 4.4 05:19:49 10° N 05:23:57 20° NE 05:28:05 10° E
Meteor 1-16 Rocket 4.5 05:20:44 10° NNW 05:26:05 50° W 05:26:09 50° W
Meteor 2-14 Rocket 4.5 05:25:33 58° SE 05:26:31 68° E 05:32:36 10° NNE
COSMOS 2487 4.4 05:24:06 10° NNW 05:25:46 26° NNW 05:25:46 26° NNW
BREEZE-M R/B 3.9 05:30:04 44° E 05:30:04 44° E 05:32:38 10° ENE
Cosmos 1244 Rocket 4.4 05:27:54 61° SSE 05:28:58 76° E 05:35:10 10° N
COSMOS 2455 2.9 05:28:14 57° WSW 05:29:21 72° WNW 05:35:24 10° NNE
Timation 2 Rocket 4.5 05:23:10 10° NNW 05:29:23 54° ENE 05:32:00 32° ESE
Cosmos 2098 Rocket 4.3 05:29:07 53° SW 05:30:41 67° W 05:38:04 10° N
Cosmos 2228 3.5 05:27:19 10° NNW 05:30:44 53° NW 05:30:44 53° NW
Cosmos 1809 Rocket 4.3 05:31:04 65° SSW 05:32:03 88° W 05:38:16 10° N
SL-16 R/B 4.2 05:28:38 13° ESE 05:33:05 28° ENE 05:38:11 10° N
Cosmos 921 Rocket 3.7 05:37:25 47° ENE 05:37:25 47° ENE 05:40:57 10° NNE
SJ 16-02 4.0 05:34:58 10° NNE 05:37:28 15° ENE 05:39:58 10° E
CZ-4 R/B 3.9 05:34:47 10° N 05:39:33 66° WNW 05:39:33 66° WNW
Cosmos 2058 Rocket 3.2 05:39:17 10° N 05:43:24 74° NNE 05:43:24 74° NNE
CZ-2D R/B 3.4 05:45:42 10° NE 05:50:08 27° E 05:51:15 25° ESE
ATLAS CENTAUR R/B 2.3 05:50:01 41° WNW 05:50:09 41° NW 05:54:08 10° NNE
Resurs 1-4 Rocket 3.3 05:47:54 10° NE 05:52:31 30° E 05:53:41 27° ESE
Cosmos 1626 Rocket 4.1 05:54:16 48° E 05:54:16 48° E 05:58:21 10° NNE
Cosmos 220 Rocket 4.2 05:55:58 65° ENE 05:55:58 65° ENE 06:00:04 10° NNE
Okean 1-7 Rocket 3.8 05:57:24 61° WNW 05:57:24 61° WNW 06:01:38 10° N
Cosmos 1697 Rocket 4.5 05:57:02 17° ESE 05:58:35 19° E 06:02:28 10° NE
Cosmos 2227 Rocket 3.8 05:55:14 10° N 06:00:18 32° NE 06:05:19 10° ESE
RESURS DK-1 2.7 06:03:12 58° NW 06:03:12 58° NW 06:06:59 10° NNE
GEOS 3 Rocket 3.7 06:01:42 38° SE 06:03:46 75° NE 06:09:02 10° NNW
SL-08 R/B 4.4 06:02:41 55° SSW 06:04:11 82° W 06:10:34 10° N
Cosmos 1626 3.2 06:09:01 38° NW 06:09:01 38° NW 06:11:47 10° N
CZ-4C R/B 4.3 06:09:10 39° ESE 06:10:01 45° ENE 06:14:11 10° N
Meteor 1-24 Rocket 3.8 06:09:34 51° WSW 06:10:15 55° WNW 06:15:33 10° N
BREEZE M DEB (TANK) 4.2 06:12:50 25° NNE 06:13:02 26° NNE 06:16:04 10° E
Cosmos 1300 3.5 06:10:02 10° NNW 06:12:54 45° NW 06:12:54 45° NW
Cosmos 1656 4.2 06:12:40 41° SE 06:13:51 48° ESE 06:19:15 10° NE
STARLINK-1372 4.4 06:15:43 39° ENE 06:15:43 39° ENE 06:18:09 10° ENE
SL-19 R/B 4.2 06:09:39 10° NNE 06:15:06 76° WNW 06:16:20 55° SW
Meteor 2-16 Rocket 4.4 06:14:46 52° SW 06:16:14 71° W 06:22:22 10° N
STARLINK-1378 4.2 06:18:13 43° ENE 06:18:13 43° ENE 06:20:47 10° NE
Cosmos 1356 Rocket 3.3 06:13:53 10° N 06:18:02 83° ENE 06:18:02 83° ENE
Cosmos 1812 Rocket 4.1 06:14:25 10° N 06:18:48 53° E 06:19:40 45° ESE
STARLINK-1329 4.1 06:20:03 45° ENE 06:20:03 45° ENE 06:22:42 10° NE
Cosmos 1386 Rocket 4.3 06:17:38 51° S 06:19:18 88° E 06:25:29 10° N
STARLINK-1379 4.1 06:20:45 46° ENE 06:20:45 46° ENE 06:23:25 10° NE
STARLINK-1365 4.0 06:22:15 51° ENE 06:22:15 51° ENE 06:25:03 10° NE
STARLINK-1362 4.0 06:22:39 49° ENE 06:22:39 49° ENE 06:25:24 10° NE
Cosmos 1709 Rocket 4.3 06:21:34 35° SSE 06:23:57 57° E 06:29:56 10° NNE
STARLINK-1373 3.9 06:24:57 53° ENE 06:24:57 53° ENE 06:27:48 10° NE
STARLINK-1320 4.4 06:27:13 35° NE 06:27:13 35° NE 06:29:11 10° NE
STARLINK-1322 4.4 06:27:32 36° NE 06:27:32 36° NE 06:29:31 10° NE
STARLINK-1390 3.8 06:27:13 56° NE 06:27:13 56° NE 06:30:09 10° NE
STARLINK-1324 4.4 06:27:52 36° NE 06:27:52 36° NE 06:29:52 10° NE
CZ-4C R/B 2.9 06:25:54 31° SE 06:26:47 33° ESE 06:31:43 10° NE
STARLINK-1294 4.3 06:28:09 37° NE 06:28:09 37° NE 06:30:11 10° NE
STARLINK-1261 4.3 06:28:31 36° NE 06:28:31 36° NE 06:30:33 10° NE
Helios 1B rocket 4.3 06:24:30 10° NNW 06:27:32 20° WNW 06:27:46 20° WNW
STARLINK-1325 4.3 06:28:50 37° NE 06:28:50 37° NE 06:30:52 10° NE
Cosmos 1602 Rocket 3.3 06:27:39 81° S 06:27:52 90° E 06:32:13 10° N
STARLINK-1333 4.3 06:29:11 37° NE 06:29:11 37° NE 06:31:13 10° NE
STARLINK-1334 4.3 06:29:29 37° NE 06:29:29 37° NE 06:31:33 10° NE
STARLINK-1326 4.3 06:29:49 38° NE 06:29:49 38° NE 06:31:53 10° NE
STARLINK-1323 4.3 06:30:08 38° NE 06:30:08 38° NE 06:32:14 10° NE
STARLINK-1349 4.3 06:30:28 38° NE 06:30:28 38° NE 06:32:35 10° NE
STARLINK-1336 4.3 06:30:48 38° NE 06:30:48 38° NE 06:32:54 10° NE
STARLINK-1331 4.2 06:31:08 39° NE 06:31:08 39° NE 06:33:15 10° NE
STARLINK-1344 4.2 06:31:27 39° NE 06:31:27 39° NE 06:33:36 10° NE
STARLINK-1343 4.2 06:31:46 39° NE 06:31:46 39° NE 06:33:55 10° NE
STARLINK-1346 4.1 06:32:03 41° NE 06:32:03 41° NE 06:34:17 10° NE
STARLINK-1328 4.2 06:32:25 40° NE 06:32:25 40° NE 06:34:35 10° NE
STARLINK-1354 4.2 06:32:44 40° NE 06:32:44 40° NE 06:34:55 10° NE
STARLINK-1347 4.2 06:33:04 41° NNE 06:33:04 41° NNE 06:35:16 10° NE
STARLINK-1357 4.1 06:33:23 41° NNE 06:33:23 41° NNE 06:35:36 10° NE
STARLINK-1335 4.1 06:33:45 41° NNE 06:33:45 41° NNE 06:35:59 10° NE
STARLINK-1327 4.1 06:34:03 41° NNE 06:34:03 41° NNE 06:36:17 10° NE
STARLINK-1340 4.1 06:34:22 42° NNE 06:34:22 42° NNE 06:36:37 10° NE
STARLINK-1356 4.1 06:34:41 42° NNE 06:34:41 42° NNE 06:36:57 10° NE
STARLINK-1345 4.1 06:35:01 42° NNE 06:35:01 42° NNE 06:37:18 10° NE
STARLINK-1355 4.1 06:35:20 42° NNE 06:35:20 42° NNE 06:37:37 10° NE
STARLINK-1321 4.1 06:35:41 43° NNE 06:35:41 43° NNE 06:37:59 10° NE
STARLINK-1358 4.0 06:36:00 43° NNE 06:36:00 43° NNE 06:38:18 10° NE
STARLINK-1332 4.0 06:36:21 43° NNE 06:36:21 43° NNE 06:38:41 10° NE
STARLINK-1348 4.0 06:36:39 43° NNE 06:36:39 43° NNE 06:38:58 10° NE
STARLINK-1330 4.0 06:36:58 43° NNE 06:36:58 43° NNE 06:39:18 10° NE
STARLINK-1363 4.0 06:37:19 44° NNE 06:37:19 44° NNE 06:39:40 10° NE
STARLINK-1337 4.0 06:37:38 44° NNE 06:37:38 44° NNE 06:40:00 10° NE
STARLINK-1342 4.0 06:37:56 44° NNE 06:37:56 44° NNE 06:40:18 10° NE
STARLINK-1364 4.0 06:38:16 44° NNE 06:38:16 44° NNE 06:40:40 10° NE
STARLINK-1376 4.0 06:38:36 44° NNE 06:38:36 44° NNE 06:41:00 10° NE
STARLINK-1360 3.9 06:38:56 45° NNE 06:38:56 45° NNE 06:41:21 10° NE
STARLINK-1361 3.9 06:39:15 45° NNE 06:39:15 45° NNE 06:41:40 10° NE
STARLINK-1367 3.9 06:39:31 46° NNE 06:39:31 46° NNE 06:42:01 10° NE
STARLINK-1366 3.9 06:39:55 45° NNE 06:39:55 45° NNE 06:42:22 10° NE
Meteor 1-21 Rocket 4.2 06:42:12 44° S 06:44:04 85° E 06:49:46 10° N
Cosmos 1763 Rocket 3.6 06:44:29 43° SSE 06:45:59 63° ESE 06:51:01 10° NNE
ATLAS 3B R/B 3.2 06:40:09 10° NW 06:46:24 38° WSW 06:47:30 36° SW
Nadezhda 1 Rocket 4.1 06:40:23 10° NNW 06:46:25 57° W 06:48:24 40° SW
IKONOS-2 4.4 06:46:23 57° SSE 06:47:16 90° NE 06:51:34 10° NNW
CENTAUR R/B 4.3 06:41:40 10° WNW 06:47:46 23° WSW 06:48:17 22° WSW
IRS-1D 4.3 06:43:03 10° NNE 06:48:11 46° E 06:50:36 28° SSE
STARLINK-1210 4.4 06:44:40 10° NW 06:48:44 51° NNE 06:52:47 10° ESE
Lacrosse 4 Rocket 3.9 06:45:53 10° N 06:49:22 23° NE 06:52:46 10° ESE
GP-B 3.6 06:45:40 10° N 06:50:03 56° E 06:51:38 35° SSE
UNK 3.6 06:49:10 51° S 06:50:18 80° WSW 06:54:56 10° NNW
Cosmos 1980 Rocket 3.7 06:48:47 18° SSE 06:51:44 28° ESE 06:56:26 10° NE
STARLINK-1219 4.3 06:49:38 10° NW 06:53:43 55° NNE 06:57:47 10° ESE
Cosmos 1328 4.3 06:52:52 42° SE 06:53:49 53° E 06:57:43 10° NNE
Cosmos 1455 2.1 06:51:14 10° N 06:54:59 78° E 06:55:32 62° SSE
Cosmos 2219 3.1 06:50:57 10° NNW 06:56:35 68° WSW 06:59:00 34° S
STARLINK-1211 4.1 06:54:36 10° NW 06:58:43 60° NNE 07:02:49 10° ESE
MOZ.5/SAFIR/RUBIN 5/SL-8 4.1 06:59:55 43° WSW 07:00:27 45° W 07:04:55 10° NNW
SL-4 R/B 4.2 06:58:33 10° WNW 07:02:43 28° NNW 07:06:47 10° NE
STARLINK-1245 4.0 06:59:34 10° NW 07:03:42 65° NE 07:07:49 10° ESE
ATLAS CENTAUR R/B 2.2 07:01:46 10° NW 07:04:53 82° NE 07:12:19 10° SE
Cosmos 1758 Rocket 3.5 07:05:35 50° SSW 07:06:38 74° W 07:11:01 10° N
Cosmos 2297 Rocket 2.1 07:02:54 10° NNW 07:08:32 67° WSW 07:11:45 26° S
STARLINK-1233 3.8 07:04:32 10° NW 07:08:41 71° NE 07:12:49 10° ESE
BREEZE-M DEB (TANK) 2.7 07:12:10 43° NNE 07:12:10 43° NNE 07:14:07 10° NE
STARLINK-1204 3.7 07:09:32 10° NW 07:13:41 77° NE 07:17:49 10° ESE
ARIANE 5 R/B 3.7 07:09:26 10° NNE 07:14:05 36° E 07:17:45 15° SSE
Cosmos 2082 4.0 07:08:35 10° NNW 07:14:14 69° ENE 07:19:50 10° SSE
AQUA 3.8 07:10:02 10° N 07:14:46 69° WNW 07:16:34 37° SW
BREEZE-M DEB (TANK) 3.9 07:12:54 29° S 07:14:49 44° SE 07:26:34 10° ENE
SL-16 R/B 2.7 07:13:42 31° SSW 07:16:22 50° W 07:22:21 10° NNW
SJ 16-02 1.4 07:12:06 10° NNW 07:16:27 58° WSW 07:17:48 39° SSW
STARLINK-1238 3.6 07:14:31 10° NW 07:18:40 83° NE 07:22:49 10° SE
Cosmos 2278 4.1 07:15:36 26° S 07:18:42 58° ESE 07:24:15 10° NNE
Cosmos 468 Rocket 4.2 07:16:46 34° SW 07:18:44 55° WNW 07:23:48 10° NNE
Cosmos 1898 Rocket 3.4 07:14:00 10° NNW 07:19:20 72° WSW 07:22:49 22° S
Cosmos 2184 Rocket 4.4 07:15:39 17° SSE 07:20:22 59° E 07:26:26 10° NNE
ADEOS II 2.2 07:15:47 10° NNE 07:21:03 71° ESE 07:24:11 25° S
Cosmos 1953 Rocket 3.5 07:21:24 34° S 07:23:19 89° W 07:27:48 10° N
STARLINK-1201 3.5 07:19:30 10° NW 07:23:39 89° SW 07:27:48 10° SE
Cosmos 1937 Rocket 3.4 07:20:46 10° NNW 07:26:03 86° WSW 07:31:08 11° SSE
IRS-P3 4.2 07:23:03 10° NNE 07:28:25 76° ESE 07:31:49 23° S
STARLINK-1206 3.5 07:24:28 10° NW 07:28:37 83° SW 07:32:45 10° SE
Cosmos 1570 Rocket 4.0 07:26:49 29° SSW 07:29:35 86° WNW 07:34:55 10° NNE
Cosmos 1703 3.6 07:29:00 37° SW 07:30:04 48° W 07:33:54 10° N
CZ-2D R/B 2.9 07:25:27 10° N 07:30:15 37° WNW 07:32:35 25° WSW
Cosmos 1400 Rocket 3.3 07:26:47 10° N 07:30:53 61° ENE 07:34:35 12° SSE
Resurs 1-4 Rocket 3.0 07:27:33 10° N 07:32:20 35° WNW 07:34:47 23° WSW
Meteor 1-11 4.2 07:29:36 22° S 07:33:18 85° E 07:38:55 10° N
STARLINK-1205 3.5 07:29:27 10° NW 07:33:36 76° SW 07:37:43 10° SE
Cosmos 2181 Rocket 4.1 07:27:56 10° NNW 07:34:16 64° W 07:38:57 19° S
Cosmos 2208 Rocket 4.0 07:32:31 27° SSW 07:35:29 89° ESE 07:40:49 10° NNE
STARLINK-43 3.8 07:36:02 34° S 07:37:12 47° SE 07:40:45 10° ENE
STARLINK-1218 3.5 07:34:26 10° WNW 07:38:33 69° SW 07:42:40 10° SE
Cosmos 1814 Rocket 4.0 07:38:33 24° SSW 07:41:52 90° WNW 07:47:15 10° NNE
Cosmos 1697 Rocket 2.9 07:38:46 25° SW 07:42:00 61° WNW 07:47:38 10° NNE
IDEFIX/ARIANE 42P 3.9 07:37:35 10° NNE 07:42:24 35° E 07:47:11 10° SSE
STARLINK-1254 3.5 07:39:25 10° WNW 07:43:31 63° SW 07:47:36 10° SE
Cosmos 2227 Rocket 2.7 07:39:10 10° NW 07:44:24 39° WSW 07:47:50 20° SSW
SL-08 R/B 3.2 07:41:23 10° SSE 07:46:06 89° ENE 07:50:45 10° NNW
BREEZE-M DEB (TANK) 4.0 07:45:50 10° NW 07:47:29 16° N 07:49:19 10° NE
STARLINK-1231 3.6 07:44:25 10° WNW 07:48:29 57° SW 07:52:32 10° SE
Cosmos 540 Rocket 3.5 07:46:55 24° SSW 07:50:04 70° WNW 07:55:13 10° NNE
BREEZE-M R/B 4.3 07:48:08 10° WNW 07:51:34 25° NNW 07:53:55 10° NE
SL-16 R/B 4.0 07:47:41 10° SSE 07:52:14 26° ESE 07:56:50 10° NE
Cosmos 2154 Rocket 4.3 07:46:32 10° S 07:52:46 69° E 07:58:58 10° NNE
STARLINK-1232 3.7 07:49:26 10° WNW 07:53:28 51° SW 07:57:28 10° SSE
Cosmos 1315 Rocket 4.3 07:50:04 10° N 07:53:44 37° ENE 07:57:23 10° SE
CZ-2D R/B 4.0 07:49:43 10° NNE 07:53:49 58° E 07:57:34 13° S
COBE Rocket 4.0 07:51:48 10° SSE 07:56:44 83° ENE 08:01:49 10° N
STARLINK-1208 3.8 07:54:26 10° WNW 07:58:26 47° SW 08:02:23 10° SSE
Iridium 2 3.6 07:55:04 10° N 07:58:50 87° E 08:02:25 11° S
ERS-2 2.1 07:55:50 10° SSE 07:59:29 84° ENE 08:03:10 10° NNW
STARLINK-1271 3.9 07:59:27 10° WNW 08:03:21 42° SW 08:07:16 10° SSE
BREEZE-M DEB (TANK) 0.9 08:01:10 10° WNW 08:03:22 89° S 08:05:46 10° ESE
CZ-4C R/B 3.9 08:00:24 10° SSE 08:03:53 53° ENE 08:07:27 10° N
Cosmos 2285 Rocket 4.3 08:01:12 10° NNW 08:07:16 48° WSW 08:13:16 10° S
STARLINK-1154 4.0 08:04:28 10° WNW 08:08:18 38° SW 08:12:09 10° SSE
Cosmos 372 Rocket 3.9 08:04:11 10° NNW 08:09:20 80° WSW 08:14:28 10° SSE
Cosmos-2242 4.4 08:07:16 10° NW 08:10:26 21° W 08:12:04 17° WSW
STARLINK-1243 4.5 08:06:37 10° NW 08:10:41 54° NNE 08:14:45 10° ESE
Cosmos 841 Rocket 4.1 08:07:29 18° SW 08:11:07 43° WNW 08:16:06 10° N
Cosmos 2221 2.6 08:08:29 10° N 08:12:51 83° E 08:17:12 10° S
STARLINK-1197 4.2 08:09:28 10° WNW 08:13:15 35° SW 08:17:01 10° SSE
CZ-4C R/B 3.1 08:11:04 13° WSW 08:15:08 37° NW 08:20:40 10° NNE
STARLINK-1236 4.3 08:11:36 10° NW 08:15:43 58° NNE 08:19:47 10° ESE
STARLINK-42 4.0 08:13:40 17° SSW 08:15:44 36° SE 08:18:43 10° ENE
STARLINK-1198 4.3 08:14:32 10° WNW 08:18:15 32° SW 08:21:55 10° SSE
Uosat 12 SS-18 rocket 4.0 08:14:09 10° NW 08:18:27 73° WSW 08:23:06 10° SSE
STARLINK-1311 4.3 08:17:38 14° S 08:19:40 27° SE 08:22:16 10° ENE
STARLINK-1256 4.5 08:19:06 12° S 08:21:23 26° SE 08:24:03 10° ENE
IRIDIUM 106 4.3 08:16:42 10° S 08:21:54 78° W 08:27:09 10° N
STARLINK-1213 4.4 08:19:58 12° S 08:22:17 27° SE 08:24:58 10° ENE
Meteor 1-27 4.4 08:17:41 10° NNW 08:23:05 53° W 08:28:27 10° S
STARLINK-1263 4.4 08:20:50 12° S 08:23:10 27° SE 08:25:53 10° ENE
STARLINK-1199 4.4 08:19:34 10° WNW 08:23:10 29° SW 08:26:45 10° SSE
STARLINK-1259 4.4 08:21:43 12° SSW 08:24:06 28° SE 08:26:49 10° ENE
STARLINK 1040 2.8 08:22:42 17° WSW 08:24:26 55° NW 08:27:00 10° NE
STARLINK-1265 4.4 08:22:10 12° SSW 08:24:35 28° SE 08:27:19 10° ENE
STARLINK-1285 4.3 08:22:34 12° SSW 08:24:58 28° SE 08:27:42 10° ENE
USA 234 3.8 08:18:37 10° ENE 08:24:58 51° SE 08:31:16 10° SSW
Cosmos 2058 3.0 08:21:00 10° S 08:25:09 79° E 08:29:23 10° N
STARLINK-1269 4.0 08:21:30 10° NW 08:25:39 69° NE 08:29:46 10° ESE
STARLINK-1297 4.5 08:23:33 11° SSW 08:26:20 30° SE 08:29:21 10° ENE
STARLINK-1268 4.3 08:24:01 12° SSW 08:26:27 29° SE 08:29:11 10° ENE
STARLINK-1296 4.3 08:24:20 12° SSW 08:26:47 29° SE 08:29:33 10° ENE
STARLINK-1260 4.2 08:25:11 12° SSW 08:27:41 30° SE 08:30:28 10° ENE
Lacrosse 4 Rocket 2.0 08:24:12 10° NW 08:28:10 37° WSW 08:32:00 10° S
Cosmos 2360 Rocket 4.4 08:24:07 10° SSE 08:28:16 22° E 08:32:26 10° NE
Nadezhda 3 Rocket 4.0 08:22:06 10° NNW 08:28:21 72° W 08:34:38 10° S
STARLINK-1318 4.2 08:26:04 12° SSW 08:28:35 31° SE 08:31:24 10° ENE
STARLINK-1275 4.2 08:26:53 12° SSW 08:29:26 31° SE 08:32:15 10° ENE
STARLINK-26 3.3 08:27:13 14° SW 08:30:02 66° SE 08:33:27 10° ENE
STARLINK-1309 4.1 08:27:47 12° SSW 08:30:21 32° SE 08:33:11 10° ENE
STARLINK-1200 3.9 08:26:30 10° NW 08:30:39 75° NE 08:34:47 10° ESE
STARLINK-1282 4.1 08:28:38 11° SSW 08:31:14 33° SE 08:34:05 10° ENE
Meteor 1-28 Rocket 3.8 08:27:49 10° SSW 08:31:21 38° W 08:34:54 10° NNW
STARLINK-1313 3.8 08:29:41 12° SSW 08:32:17 39° SE 08:35:14 10° ENE
STARLINK-55 3.1 08:29:57 14° SW 08:32:36 66° SE 08:35:46 10° ENE
STARLINK-1279 3.8 08:30:36 12° SSW 08:33:15 40° SE 08:36:12 10° ENE
MSX 4.1 08:27:55 10° NNE 08:33:42 71° ESE 08:39:25 10° S
STARLINK-1298 4.0 08:31:14 11° SSW 08:33:56 35° SE 08:36:49 10° ENE
STARLINK-1293 4.0 08:32:08 11° SSW 08:34:52 36° SE 08:37:46 10° ENE
Cosmos 1980 Rocket 2.8 08:30:34 12° SW 08:35:29 42° WNW 08:40:51 10° NNE
STARLINK-1192 3.7 08:31:29 10° NW 08:35:38 81° NE 08:39:47 10° SE
STARLINK-1255 3.9 08:33:49 11° SSW 08:36:36 37° SE 08:39:32 10° ENE
Cosmos 2084 Rocket 3.9 08:35:23 10° NNW 08:39:52 74° NE 08:44:22 10° SE
STARLINK-1244 3.6 08:36:28 10° NW 08:40:37 88° NE 08:44:45 10° SE
Cosmos 1892 2.7 08:37:55 10° SSW 08:41:45 70° W 08:45:34 10° N
ERBS 3.2 08:38:29 10° NW 08:41:46 53° NE 08:45:04 10° ESE
Cosmos 2341 Rocket 4.1 08:35:51 10° S 08:42:14 89° W 08:48:38 10° N
CZ-4B R/B 2.8 08:39:37 10° SE 08:42:27 39° ENE 08:45:21 10° N
STARLINK-1317 3.7 08:39:28 10° SW 08:42:51 51° SE 08:46:16 10° ENE
STARLINK-28 2.9 08:39:50 11° SW 08:42:51 89° NW 08:46:04 10° NE
NOSS 2-1 (C) 3.5 08:39:37 10° SSW 08:42:58 52° ESE 08:46:22 10° NE
H-2A R/B 2.5 08:39:25 10° S 08:43:30 42° W 08:47:42 10° NNW
SL-4 R/B 4.4 08:39:30 10° NW 08:43:32 26° N 08:47:23 10° ENE
STARLINK-1138 3.6 08:41:25 10° NW 08:45:34 85° SW 08:49:42 10° SE
SAR-Lupe-4 3.7 08:42:38 10° SSE 08:46:12 79° ENE 08:49:49 10° N
deb Chang Zheng 4 3.8 08:42:50 10° NNE 08:47:09 71° ESE 08:51:25 10° S
NOSS 2-1 (D) 3.3 08:44:02 10° SSW 08:47:26 60° ESE 08:50:52 10° NE
STARLINK-41 3.0 08:44:33 10° SW 08:47:41 74° SE 08:50:48 10° NE
Cosmos 2150 Rocket 4.2 08:43:36 10° NNW 08:48:33 47° WSW 08:53:26 10° S
USA 129 2.1 08:48:40 10° NNW 08:49:06 11° WNW 08:49:11 11° WNW
STARLINK-1291 3.5 08:46:41 10° SW 08:49:55 54° SE 08:53:09 10° ENE
STARLINK-1143 3.6 08:46:24 10° NW 08:50:33 78° SW 08:54:40 10° SE
STARLINK-1264 3.4 08:49:07 10° SW 08:52:22 57° SE 08:55:38 10° ENE
ARIANE 5 R/B 3.7 08:48:50 10° N 08:53:02 27° WNW 08:57:12 10° WSW
STARLINK-1267 3.4 08:50:52 10° SW 08:54:09 60° SE 08:57:25 10° ENE
STARLINK-1241 3.6 08:51:24 10° NW 08:55:32 71° SW 08:59:38 10° SE
STARLINK-1203 3.6 08:51:34 10° WNW 08:55:45 70° SW 08:59:55 10° SE
